Tucson, AZ

8:11 PM MST on October 18, 2019 (GMT -0700)
Tucson International

Weather History for KTUS - August, 2019

Change the Weather History Date:

Wednesday, August 14, 2019

  Actual Average Record
Temperature  
Mean Temperature 91 °F 85 °F  
Max Temperature 107 °F 97 °F 107 °F (2015)
Min Temperature 75 °F 73 °F 61 °F (1918)
Degree Days  
Heating Degree Days 0 0  
Month to date heating degree days 0 0  
Since 1 June heating degree days 0 0  
Since 1 July heating degree days 0 0  
Cooling Degree Days 26 20  
Month to date cooling degree days 336 286  
Year to date cooling degree days 2113 2065  
Since 1 June cooling degree days 1741 1563  
Growing Degree Days 40 (Base 50)    
Moisture  
Dew Point 44 °F    
Average Humidity 22    
Maximum Humidity 42    
Minimum Humidity 5    
Precipitation  
Precipitation 0.00 in 0.08 in 2.25 in (1940)
Month to date precipitation 1.15 1.16  
Year to date precipitation 7.25 6.68  
Sea Level Pressure  
Sea Level Pressure 29.86 in    
Wind  
Wind Speed 6 mph (SW)    
Max Wind Speed 15 mph    
Max Gust Speed 20 mph    
Visibility 10 miles    
Events      
T = Trace of Precipitation, MM = Missing Value Source: NWS Daily Summary

Daily Weather History Graph

Daily Weather History Graph

Search for Another Location

Airport or City:

Astronomy

Aug. 14, 2019 Rise Set
Actual Time 5:47 AM MST 7:09 PM MST
Civil Twilight 5:21 AM MST 7:34 PM MST
Nautical Twilight 4:50 AM MST 8:05 PM MST
Astronomical Twilight 4:18 AM MST 8:37 PM MST
Moon 7:01 PM MST (8/14) 4:53 AM MST (8/14)
Length of Visible Light 14h 13m
Length of Day
13h 21m
Full, 100% of the Moon is Illuminated
Aug 14
Full
Aug 15
Full
Aug 23
Last Quarter
Aug 30
New
Sep 5
First Quarter

Hourly Weather History & Observations

Time (MST) Temp. Dew Point Humidity Pressure Visibility Wind Dir Wind Speed Gust Speed Precip Events Conditions
12:53 AM 80.1 °F 50.0 °F 35% 29.86 in 10.0 mi South 4.6 mph - N/A   Clear
1:53 AM 79.0 °F 50.0 °F 36% 29.86 in 10.0 mi SE 8.1 mph - N/A   Clear
2:53 AM 77.0 °F 50.0 °F 39% 29.86 in 10.0 mi SSE 5.8 mph - N/A   Clear
3:53 AM 75.9 °F 48.9 °F 38% 29.86 in 10.0 mi SSE 6.9 mph - N/A   Clear
4:53 AM 75.9 °F 51.1 °F 42% 29.87 in 10.0 mi SSE 8.1 mph - N/A   Clear
5:53 AM 75.9 °F 51.1 °F 42% 29.88 in 10.0 mi SSE 9.2 mph - N/A   Clear
6:53 AM 77.0 °F 51.1 °F 40% 29.90 in 10.0 mi South 4.6 mph - N/A   Clear
7:53 AM 78.1 °F 51.1 °F 39% 29.92 in 10.0 mi South 5.8 mph - N/A   Clear
8:53 AM 86.0 °F 50.0 °F 29% 29.91 in 10.0 mi South 4.6 mph - N/A   Clear
9:53 AM 93.0 °F 45.0 °F 19% 29.91 in 10.0 mi Calm Calm - N/A   Clear
10:53 AM 97.0 °F 44.1 °F 16% 29.90 in 10.0 mi West 4.6 mph - N/A   Clear
11:19 AM 99.0 °F 41.0 °F 14% 30.06 in 10.0 mi NW 8.1 mph - N/A   Clear
11:53 AM 102.0 °F 37.0 °F 11% 29.88 in 10.0 mi NNW 10.4 mph - N/A   Clear
12:53 PM 102.9 °F 37.9 °F 11% 29.86 in 10.0 mi Variable 4.6 mph - N/A   Clear
1:53 PM 104.0 °F 37.9 °F 10% 29.84 in 10.0 mi NW 6.9 mph - N/A   Clear
2:53 PM 104.0 °F 39.0 °F 11% 29.81 in 10.0 mi West 10.4 mph - N/A   Clear
3:53 PM 105.1 °F 41.0 °F 11% 29.79 in 10.0 mi West 9.2 mph 19.6 mph N/A   Clear
4:53 PM 106.0 °F 39.9 °F 11% 29.78 in 10.0 mi NNW 8.1 mph - N/A   Clear
5:53 PM 104.0 °F 39.0 °F 11% 29.78 in 10.0 mi NNW 9.2 mph - N/A   Clear
6:53 PM 100.9 °F 36.0 °F 11% 29.79 in 10.0 mi NNW 8.1 mph - N/A   Clear
7:53 PM 96.1 °F 37.9 °F 13% 29.82 in 10.0 mi NNW 4.6 mph - N/A   Clear
8:53 PM 95.0 °F 37.0 °F 13% 29.83 in 10.0 mi North 4.6 mph - N/A   Clear
9:53 PM 90.0 °F 45.0 °F 21% 29.83 in 10.0 mi Calm Calm - N/A   Clear
10:53 PM 88.0 °F 44.1 °F 22% 29.84 in 10.0 mi South 5.8 mph - N/A   Clear
11:53 PM 86.0 °F 45.0 °F 24% 29.84 in 10.0 mi South 4.6 mph - N/A   Clear